Location: Pcim
(49.7500°N, 19.9670°E)
Time: 00:45:57
(UTC+02:00)

CUBEBUG 2 - Pass Details

Date: 03 May 2024
Orbit: 570 x 669 km, 97.8° (Epoch: 18 May)

Event Time Altitude Azimuth Distance (km) Brightness Sun altitude
Rises 03:28:18 0° 8° (N) 2,820 ? -14.4°
Reaches altitude 10° 03:30:29 10° 3° (N) 1,927 ? -14.2°
Maximum altitude 03:34:29 48° 290° (WNW) 795 ? -13.7°
Enters shadow 03:37:00 21° 225° (SW) 1,361 ? -13.4°
